Location: Newark
(45.2500°N, 7.5833°E)
Time: 12:39:38
(UTC+00:00)

BEESAT 2 - Pass Details

Date: 27 February 2020
Orbit: 494 x 533 km, 64.9° (Epoch: 03 April)

Event Time Altitude Azimuth Distance (km) Brightness Sun altitude
Rises 18:53:10 0° 327° (NNW) 2,688 ? -18.3°
Reaches altitude 10° 18:55:25 10° 332° (NNW) 1,795 ? -18.7°
Maximum altitude 18:59:22 54° 51° (NE) 651 ? -19.4°
Enters shadow 18:59:43 52° 73° (ENE) 667 ? -19.5°
